Regional Weather Roundup
Issued by NWS Bismarck, ND

Home | Current Version | Previous Version | Text Only | Print | Product List | Glossary On
Versions: 1 2 3 4 5 6 7 8 9 10 11 12 13 14 15 16 17 18 19 20 21 22 23 24 25 26 27 28 29 30 31 32 33 34 35 36 37 38 39 40 41 42 43 44 45 46 47 48 49 50
000
ASUS43 KBIS 051910
RWRBIS

NWR BROADCAST TEXT
NATIONAL WEATHER SERVICE BISMARCK ND
100 PM CST MON DEC 05 2016

NOTE: "FAIR" INDICATES FEW OR NO CLOUDS BELOW 12,000 FEET WITH NO
SIGNIFICANT WEATHER AND/OR OBSTRUCTIONS TO VISIBILITY.


CITY           SKY/WX    TMP DP  RH WIND       PRES   REMARKS
WILLISTON      LGT SNOW  20  14  77 NW35G44   29.71R VSB 3/4 WCI   0
MINOT          CLOUDY    24  18  77 SW15      29.56R WCI  11
MINOT AFB      CLOUDY    23  19  87 W12       29.54S WCI  11
BISMARCK       HVY SNOW  31  29  92 NW15      29.58R VSB 1/4
DICKINSON      SNOW      19  15  84 NW33G40   29.63F VSB 1/4 WCI  -1
GARRISON         N/A     25  21  85 W16       29.59R WCI  12
HETTINGER ARPT MIX PCPN  21  17  84 NW31G38   29.67R FOG     WCI   2
JAMESTOWN      CLOUDY    29  27  92 N10       29.55F WCI  20
BEACH          FLURRIES  18  14  86 NW31G41   29.76R WCI  -2
CARRINGTON     CLOUDY    25  23  93 NE5       29.61F WCI  19
HAZEN          CLOUDY    27  21  80 W17G24    29.64R WCI  14
RUGBY          LGT SNOW  25  25 100 SE12      29.57F VSB 3/4 WCI  14
STANLEY        CLOUDY    21  21 100 NW15      29.61R WCI   8
TIOGA          CLOUDY    19  19 100 NW25G32   29.63R FOG     WCI   2
WATFORD CITY   LGT SNOW  18  16  93 NW24G35   29.69R VSB 3/4 WCI   0
$$

CITY           SKY/WX    TMP DP  RH WIND       PRES   REMARKS
GRAND FORKS    CLOUDY    30  26  85 NE12      29.63F
GRAND FORKS AF CLOUDY    28  27  98 E9        29.63F WCI  19
DEVILS LAKE    CLOUDY    26  25  96 E9        29.61F FOG     WCI  17
FARGO          CLOUDY    34  28  79 E10       29.55F
CANDO          CLOUDY    27  27 100 SE14      29.63F WCI  15
CAVALIER         N/A     28  27  93 E8        29.68S
GRAFTON        CLOUDY    28  28 100 E12       29.68F WCI  18
GWINNER        CLOUDY    34  32  93 E10       29.52F
LANGDON        FOG       27  27 100 MISG      29.63R VSB<1/4
ROLLA          MOCLDY    23  23 100 SE10      29.59F WCI  12
WALHALLA         N/A     27  27 100 E10       29.68S WCI  17
$$

CITY           SKY/WX    TMP DP  RH WIND       PRES   REMARKS
ABERDEEN       CLOUDY    39  29  67 NE3       29.47F
MOBRIDGE       SNOW      32  28  85 NW23G31   29.51F VSB 1/4 WCI  19
BUFFALO          N/A     24  14  65 NW39G51   29.61R WCI   5
RAPID CITY     CLOUDY    27  16  63 NW41G51   29.65R WCI   8
GLASGOW        CLOUDY    11   2  67 NW33G40   29.92R WCI -12
SIDNEY         SNOW      18  14  86 NW37      29.76R VSB 1/2 WCI  -4
WOLF POINT     SNOW      13   7  77 NW29G35   29.89R VSB 1/2 WCI  -8
GLENDIVE       FLURRIES  17  10  74 NW30G41   29.79R WCI  -3
MILES CITY     CLOUDY    21   9  59 NW33G41   29.87R WCI   2
BAKER          PTSUNNY   22  13  68 NW28G37   29.74R WCI   4
$$

CITY           SKY/WX    TMP DP  RH WIND       PRES   REMARKS
BILLINGS       CLOUDY    24   4  42 NW26G38   29.89R WCI   8
GREAT FALLS    LGT SNOW  13   5  70 NW9       30.03S WCI   1
REGINA         LGT SNOW  18  12  79 NW24G31   29.79S BLWGSNOWWCI   0
ESTEVAN        SNOW      19  18  93 N24       29.64R VSB 1/2 WCI   2
$$





USA.gov is the U.S. government's official web portal to all federal, state and local government web resources and services.